User: anonymous   Login
Location: Dampvalley
(47.9094°N, 6.1967°E)
Time: 19:57:18
(UTC+00:00)
Language:

XW-2C - Orbit

View from above orbital plane
View from above orbital plane
View from above satellite
View from above satellite

Ground track
Ground track

The orbit data is extracted from the following two-line orbital elements,

1 40906U 15049H   21339.47663346  .00002414  00000-0  12442-3 0  9992
2 40906  97.4910 339.7937 0013371 319.7738 163.7880 15.17272299343496
Epoch (UTC): 05 December 2021 11:26:21
Eccentricity: 0.0013371
inclination: 97.4910°
perigee height: 505 km
apogee height: 523 km
right ascension of ascending node: 339.7937°
argument of perigee: 319.7738°
revolutions per day: 15.17272299
mean anomaly at epoch: 163.7880°
orbit number at epoch: 34349

The dashed part of the orbit path shows where the satellite is in the earth's shadow,  

DLR